Grand Island, NE

4:05 AM CDT on April 26, 2018 (GMT -0500)
Central Nebraska Regional

Weather History for KGRI - October, 2013

Change the Weather History Date:

Monday, October 21, 2013

  Actual Average Record
Temperature  
Mean Temperature 45 °F 50 °F  
Max Temperature 59 °F 63 °F 90 °F (1947)
Min Temperature 30 °F 38 °F 14 °F (1936)
Degree Days  
Heating Degree Days 20 15  
Month to date heating degree days 216 237  
Since 1 July heating degree days 240 352  
Cooling Degree Days 0 0  
Month to date cooling degree days 15 10  
Year to date cooling degree days 1265 1033  
Moisture  
Dew Point 34 °F    
Average Humidity 67    
Maximum Humidity 96    
Minimum Humidity 37    
Precipitation  
Precipitation T in 0.06 in 2.45 in (1900)
Month to date precipitation 3.64 1.37  
Year to date precipitation 25.43 24.37  
Snow  
Snow 0.00 in 0.10 in T in (2006)
Month to date snowfall 0.0 0.5  
Since 1 July snowfall 0.0 0.6  
Since 1 September snowfall 0.0 0.6  
Snow Depth 0.00 in    
Sea Level Pressure  
Sea Level Pressure 30.06 in    
Wind  
Wind Speed 7 mph (West)    
Max Wind Speed 17 mph    
Max Gust Speed 24 mph    
Visibility 10 miles    
Events      
T = Trace of Precipitation, MM = Missing Value Source: NWS Daily Summary

Daily Weather History Graph

Daily Weather History Graph

Search for Another Location

Airport or City:

Astronomy

Oct. 21, 2013 Rise Set
Actual Time 7:51 AM CDT 6:43 PM CDT
Civil Twilight 7:23 AM CDT 7:11 PM CDT
Nautical Twilight 6:51 AM CDT 7:43 PM CDT
Astronomical Twilight 6:19 AM CDT 8:15 PM CDT
Moon 8:36 PM CDT (10/21) 10:28 AM CDT (10/21)
Length of Visible Light 11h 47m
Length of Day
10h 51m
Waning Gibbous, 92% of the Moon is Illuminated
Oct 21
Waning Gibbous
Oct 26
Last Quarter
Nov 3
New
Nov 9
First Quarter
Nov 17
Full

Hourly Weather History & Observations

Time (CDT) Temp. Windchill Dew Point Humidity Pressure Visibility Wind Dir Wind Speed Gust Speed Precip Events Conditions
12:53 AM 35.1 °F 31.0 °F 32.0 °F 89% 30.10 in 10.0 mi WNW 4.6 mph - N/A   Clear
1:53 AM 33.1 °F 27.7 °F 30.9 °F 92% 30.11 in 10.0 mi WNW 5.8 mph - N/A   Clear
2:53 AM 32.0 °F 26.4 °F 30.0 °F 92% 30.12 in 10.0 mi West 5.8 mph - N/A   Clear
3:53 AM 30.9 °F 26.2 °F 28.9 °F 92% 30.11 in 10.0 mi West 4.6 mph - N/A   Clear
4:53 AM 32.0 °F 26.4 °F 28.9 °F 88% 30.12 in 10.0 mi West 5.8 mph - N/A   Partly Cloudy
5:53 AM 30.9 °F 24.3 °F 28.9 °F 92% 30.13 in 10.0 mi West 6.9 mph - N/A   Mostly Cloudy
6:53 AM 34.0 °F - 32.0 °F 92% 30.12 in 10.0 mi Calm Calm - N/A   Overcast
7:53 AM 36.0 °F 32.1 °F 33.1 °F 89% 30.12 in 10.0 mi SW 4.6 mph - N/A   Overcast
8:53 AM 37.9 °F 34.4 °F 34.0 °F 86% 30.13 in 10.0 mi WSW 4.6 mph - N/A   Overcast
9:53 AM 41.0 °F 35.8 °F 34.0 °F 76% 30.12 in 10.0 mi SSW 8.1 mph - N/A   Overcast
10:53 AM 44.1 °F 39.0 °F 35.1 °F 71% 30.11 in 10.0 mi SW 9.2 mph - 0.00 in   Overcast
11:53 AM 50.0 °F - 36.0 °F 59% 30.10 in 10.0 mi West 9.2 mph - N/A   Partly Cloudy
12:17 PM 48.2 °F - 35.6 °F 62% 30.07 in 10.0 mi NW 13.8 mph - N/A   Mostly Cloudy
12:28 PM 51.8 °F - 35.6 °F 54% 30.06 in 10.0 mi WNW 11.5 mph - N/A   Mostly Cloudy
12:53 PM 52.0 °F - 35.1 °F 53% 30.09 in 10.0 mi NW 11.5 mph 21.9 mph N/A   Partly Cloudy
1:53 PM 55.0 °F - 33.1 °F 43% 30.07 in 10.0 mi NW 13.8 mph 20.7 mph N/A   Clear
2:53 PM 57.0 °F - 33.1 °F 40% 30.03 in 10.0 mi West 8.1 mph - N/A   Clear
3:53 PM 57.9 °F - 33.1 °F 39% 30.02 in 10.0 mi WNW 10.4 mph 18.4 mph N/A   Partly Cloudy
4:53 PM 59.0 °F - 33.1 °F 38% 29.99 in 10.0 mi WSW 9.2 mph - N/A   Clear
5:53 PM 55.9 °F - 34.0 °F 44% 29.98 in 10.0 mi SW 5.8 mph - N/A   Clear
6:53 PM 53.1 °F - 36.0 °F 52% 29.97 in 10.0 mi South 3.5 mph - N/A   Overcast
7:53 PM 54.0 °F - 37.0 °F 53% 29.97 in 10.0 mi WNW 3.5 mph - 0.00 in   Overcast
8:53 PM 51.1 °F - 37.9 °F 61% 29.96 in 10.0 mi West 9.2 mph - N/A   Overcast
9:53 PM 50.0 °F - 39.9 °F 68% 29.97 in 10.0 mi West 8.1 mph - N/A   Clear
10:53 PM 48.9 °F - 39.0 °F 69% 29.97 in 10.0 mi WNW 9.2 mph - N/A   Clear
11:53 PM 48.9 °F - 39.9 °F 71% 29.96 in 10.0 mi West 6.9 mph - N/A   Mostly Cloudy